• în Republica Moldova
  • Lista ţărilor
  • Pe 7 zile
  • Temperatura apei
  • Hartă satelitară
  • Meteo pe hartă
  • Widget-uri
  • user-avatar
    Intrare

    Meteo pe oră la Eisenstadt

    Astăzi, 24 Martie, Vineri

    Timp Temperatura Precipitaţii Vânt Presiune Umiditate
    00:00 +6°C° 0 mm 2 m/s 723 mmHg 90%
    01:00 +5°C° 0 mm 2 m/s 724 mmHg 90%
    02:00 +5°C° 0 mm 2 m/s 724 mmHg 91%
    03:00 +5°C° 0 mm 2 m/s 724 mmHg 91%
    04:00 +5°C° 0 mm 2 m/s 724 mmHg 92%
    05:00 +5°C° 0 mm 2 m/s 725 mmHg 91%
    06:00 +5°C° 0 mm 2 m/s 725 mmHg 90%
    07:00 +5°C° 0 mm 3 m/s 726 mmHg 88%
    08:00 +8°C° 0 mm 3 m/s 726 mmHg 82%
    09:00 +8°C° 0 mm 4 m/s 727 mmHg 76%
    10:00 +11°C° 0 mm 4 m/s 727 mmHg 71%
    11:00 +12°C° 0 mm 4 m/s 727 mmHg 68%
    12:00 +12°C° 0 mm 4 m/s 727 mmHg 66%
    13:00 +13°C° 0 mm 4 m/s 728 mmHg 63%
    14:00 +13°C° 0 mm 5 m/s 728 mmHg 65%
    15:00 +12°C° 0 mm 5 m/s 728 mmHg 67%
    16:00 +12°C° 0 mm 5 m/s 728 mmHg 69%
    17:00 +9°C° 0 mm 5 m/s 728 mmHg 73%
    18:00 +8°C° 0 mm 4 m/s 728 mmHg 78%
    19:00 +6°C° 0 mm 4 m/s 728 mmHg 83%
    20:00 +6°C° 0 mm 4 m/s 729 mmHg 83%
    21:00 +5°C° 0 mm 4 m/s 729 mmHg 84%
    22:00 +4°C° 0 mm 4 m/s 730 mmHg 84%
    23:00 +4°C° 0 mm 4 m/s 730 mmHg 84%

    Mâine, 25 Martie, Sâmbătă

    Timp Temperatura Precipitaţii Vânt Presiune Umiditate
    00:00 +3°C° 0 mm 3 m/s 730 mmHg 85%
    01:00 +3°C° 0 mm 3 m/s 730 mmHg 85%
    02:00 +3°C° 0 mm 3 m/s 730 mmHg 86%
    03:00 +2°C° 0 mm 3 m/s 730 mmHg 86%
    04:00 +3°C° 0 mm 2 m/s 730 mmHg 86%
    05:00 +3°C° 0 mm 2 m/s 730 mmHg 85%
    06:00 +3°C° 0 mm 2 m/s 730 mmHg 83%
    07:00 +3°C° 0 mm 2 m/s 730 mmHg 81%
    08:00 +5°C° 0 mm 2 m/s 730 mmHg 76%
    09:00 +6°C° 0 mm 2 m/s 730 mmHg 70%
    10:00 +9°C° 0 mm 1 m/s 730 mmHg 64%
    11:00 +10°C° 0 mm 1 m/s 730 mmHg 62%
    12:00 +11°C° 0 mm 1 m/s 729 mmHg 59%
    13:00 +12°C° 0 mm 1 m/s 729 mmHg 57%
    14:00 +12°C° 0 mm 1 m/s 728 mmHg 57%
    15:00 +12°C° 0 mm 1 m/s 728 mmHg 57%
    16:00 +12°C° 0 mm 1 m/s 727 mmHg 58%
    17:00 +10°C° 0 mm 1 m/s 727 mmHg 65%
    18:00 +8°C° 0 mm 1 m/s 726 mmHg 72%
    19:00 +6°C° 0 mm 1 m/s 726 mmHg 79%
    20:00 +6°C° 0 mm 1 m/s 726 mmHg 81%
    21:00 +5°C° 0 mm 1 m/s 726 mmHg 82%
    22:00 +5°C° 0 mm 1 m/s 725 mmHg 83%
    23:00 +5°C° 0 mm 1 m/s 725 mmHg 82%

    Poimâine, 26 Martie, Duminică

    Timp Temperatura Precipitaţii Vânt Presiune Umiditate
    00:00 +4°C° 0 mm 1 m/s 725 mmHg 81%
    01:00 +4°C° 0 mm 1 m/s 725 mmHg 80%
    02:00 +4°C° 0 mm 1 m/s 725 mmHg 80%
    03:00 +3°C° 0 mm 2 m/s 724 mmHg 80%
    04:00 +3°C° 0 mm 2 m/s 724 mmHg 80%
    05:00 +3°C° 0 mm 2 m/s 724 mmHg 78%
    06:00 +3°C° 0 mm 2 m/s 724 mmHg 77%
    07:00 +4°C° 0 mm 2 m/s 724 mmHg 76%
    08:00 +4°C° 0 mm 3 m/s 725 mmHg 71%
    09:00 +6°C° 0 mm 4 m/s 725 mmHg 66%
    10:00 +7°C° 0 mm 4 m/s 725 mmHg 61%
    11:00 +8°C° 0 mm 4 m/s 725 mmHg 58%
    12:00 +9°C° 0 mm 5 m/s 725 mmHg 55%
    13:00 +9°C° 0 mm 5 m/s 726 mmHg 52%
    14:00 +9°C° 0 mm 5 m/s 726 mmHg 52%
    15:00 +9°C° 0 mm 5 m/s 726 mmHg 53%
    16:00 +8°C° 0 mm 5 m/s 726 mmHg 54%
    17:00 +7°C° 0 mm 5 m/s 726 mmHg 60%
    18:00 +5°C° 0 mm 4 m/s 726 mmHg 66%
    19:00 +3°C° 0 mm 3 m/s 727 mmHg 72%
    20:00 +3°C° 0 mm 3 m/s 727 mmHg 74%
    21:00 +2°C° 0 mm 3 m/s 728 mmHg 76%
    22:00 +2°C° 0 mm 2 m/s 728 mmHg 79%
    23:00 +2°C° 0 mm 2 m/s 728 mmHg 80%

    27 Martie, Luni

    Timp Temperatura Precipitaţii Vânt Presiune Umiditate
    00:00 +1°C° 0 mm 2 m/s 728 mmHg 81%
    01:00 +2°C° 0 mm 1 m/s 729 mmHg 83%
    02:00 +1°C° 0 mm 1 m/s 728 mmHg 83%
    03:00 +1°C° 0 mm 1 m/s 728 mmHg 83%
    04:00 +1°C° 0 mm 1 m/s 728 mmHg 83%
    05:00 +2°C° 0 mm 1 m/s 728 mmHg 79%
    06:00 +3°C° 0 mm 1 m/s 728 mmHg 74%
    07:00 +4°C° 0 mm 1 m/s 729 mmHg 70%
    08:00 +5°C° 0 mm 1 m/s 729 mmHg 62%
    09:00 +7°C° 0 mm 1 m/s 729 mmHg 54%
    10:00 +9°C° 0 mm 1 m/s 729 mmHg 46%
    11:00 +9°C° 0 mm 2 m/s 729 mmHg 43%
    12:00 +10°C° 0 mm 2 m/s 729 mmHg 40%
    13:00 +12°C° 0 mm 2 m/s 729 mmHg 37%
    14:00 +12°C° 0 mm 2 m/s 728 mmHg 38%
    15:00 +12°C° 0 mm 2 m/s 728 mmHg 40%
    16:00 +12°C° 0 mm 2 m/s 728 mmHg 42%
    17:00 +9°C° 0 mm 2 m/s 728 mmHg 50%
    18:00 +7°C° 0 mm 2 m/s 728 mmHg 59%
    19:00 +4°C° 0 mm 2 m/s 728 mmHg 67%
    20:00 +4°C° 0 mm 2 m/s 728 mmHg 68%
    21:00 +4°C° 0 mm 2 m/s 729 mmHg 68%
    22:00 +4°C° 0 mm 2 m/s 729 mmHg 68%
    23:00 +4°C° 0 mm 2 m/s 729 mmHg 70%

    28 Martie, Marţi

    Timp Temperatura Precipitaţii Vânt Presiune Umiditate
    00:00 +3°C° 0 mm 2 m/s 729 mmHg 72%
    01:00 +4°C° 0 mm 1 m/s 729 mmHg 75%
    02:00 +4°C° 0 mm 1 m/s 729 mmHg 78%
    03:00 +3°C° 0 mm 1 m/s 729 mmHg 81%
    04:00 +3°C° 0 mm 1 m/s 728 mmHg 84%
    05:00 +3°C° 0 mm 0 m/s 729 mmHg 81%
    06:00 +4°C° 0 mm 0 m/s 729 mmHg 79%
    07:00 +5°C° 0 mm 0 m/s 729 mmHg 76%
    08:00 +7°C° 0 mm 0 m/s 730 mmHg 68%
    09:00 +11°C° 0 mm 1 m/s 730 mmHg 60%
    10:00 +13°C° 0 mm 1 m/s 730 mmHg 52%
    11:00 +14°C° 0 mm 1 m/s 730 mmHg 49%
    12:00 +15°C° 0 mm 1 m/s 730 mmHg 47%
    13:00 +16°C° 0 mm 2 m/s 729 mmHg 44%
    14:00 +16°C° 0 mm 2 m/s 729 mmHg 45%
    15:00 +16°C° 0 mm 2 m/s 729 mmHg 47%
    16:00 +16°C° 0 mm 2 m/s 729 mmHg 48%
    17:00 +13°C° 0 mm 1 m/s 728 mmHg 57%
    18:00 +10°C° 0 mm 1 m/s 728 mmHg 67%
    19:00 +8°C° 0 mm 1 m/s 728 mmHg 76%
    20:00 +7°C° 0 mm 1 m/s 728 mmHg 78%
    21:00 +7°C° 0 mm 1 m/s 729 mmHg 79%
    22:00 +6°C° 0 mm 1 m/s 729 mmHg 81%
    23:00 +6°C° 0 mm 1 m/s 729 mmHg 81%

    29 Martie, Miercuri

    Timp Temperatura Precipitaţii Vânt Presiune Umiditate
    00:00 +6°C° 0 mm 1 m/s 729 mmHg 82%
    01:00 +6°C° 0 mm 1 m/s 729 mmHg 83%
    02:00 +5°C° 0 mm 1 m/s 729 mmHg 84%
    03:00 +5°C° 0 mm 1 m/s 729 mmHg 84%
    04:00 +5°C° 0 mm 1 m/s 729 mmHg 85%
    05:00 +6°C° 0 mm 1 m/s 729 mmHg 82%
    06:00 +7°C° 0 mm 1 m/s 730 mmHg 79%
    07:00 +8°C° 0 mm 1 m/s 730 mmHg 75%
    08:00 +11°C° 0 mm 1 m/s 730 mmHg 68%
    09:00 +13°C° 0 mm 1 m/s 731 mmHg 60%
    10:00 +16°C° 0 mm 1 m/s 731 mmHg 52%
    11:00 +18°C° 0 mm 1 m/s 731 mmHg 50%
    12:00 +18°C° 0 mm 1 m/s 730 mmHg 47%
    13:00 +18°C° 0 mm 2 m/s 730 mmHg 45%
    14:00 +18°C° 0 mm 2 m/s 730 mmHg 46%
    15:00 +18°C° 0 mm 2 m/s 730 mmHg 48%
    16:00 +19°C° 0 mm 1 m/s 729 mmHg 50%
    17:00 +15°C° 0 mm 1 m/s 729 mmHg 59%
    18:00 +13°C° 0 mm 1 m/s 729 mmHg 68%
    19:00 +10°C° 0 mm 1 m/s 729 mmHg 78%
    20:00 +10°C° 0 mm 1 m/s 729 mmHg 78%
    21:00 +9°C° 0 mm 1 m/s 729 mmHg 79%
    22:00 +9°C° 0 mm 1 m/s 729 mmHg 80%
    23:00 +9°C° 0 mm 1 m/s 730 mmHg 80%
    Arată mai mult